Tracking 31027 objects as of 19-Jul-2025
HD Live streaming from Space Station
objects crossing your sky now

STARLINK-1371

Track STARLINK-1371 now!
10-day predictions
STARLINK-1371 is classified as:


NORAD ID: 45542
Int'l Code: 2020-025M
Perigee: 553.4 km
Apogee: 555.4 km
Inclination: 53.1 °
Period: 95.6 minutes
Semi major axis: 6925 km
RCS: Unknown
Launch date: April 22, 2020
Source: United States (US)
Launch site: AIR FORCE EASTERN TEST RANGE (AFETR)
Your satellite tracking list
COSMOS 1656
Track 1 satellite(s)




NASA's NSSDC Master Catalog

Two Line Element Set (TLE):
1 45542U 20025M   25199.63674877 -.00001225  00000-0 -63373-4 0  9991
2 45542  53.0535  77.3238 0001423  79.8456 280.2693 15.06394656289815
Source of the keplerian elements: AFSPC